This demonstration page uses our WeatherBlox Daily Observations layout. Learn more.

Left ArrowRight Arrow

36.19886, -115.1175

Hourly Observations for September 18, 2021

Temp ( °F °C ) Dew Point ( °F °C ) Humidity (%) Winds ( mph kmh ) Pressure ( in mb ) Visibility ( mi km ) Precip ( " mm )
12:53 am 00:53 Partly Cloudy 82 27.8 50 10 33 33 NW 6 9 29.95 1014 10 16 N/A
1:53 am 01:53 Mostly Cloudy 80 26.7 54 12.2 41 41 NW 5 7 29.94 1014 10 16 0.00 0.00
2:53 am 02:53 Clear 78 25.6 52 11.1 40 40 WNW 3 6 29.93 1014 10 16 N/A
3:53 am 03:53 Clear 79 26.1 51 10.6 38 38 N 3 6 29.93 1013 10 16 N/A
4:53 am 04:53 Clear 78 25.6 52 11.1 40 40 NW 3 6 29.93 1013 10 16 N/A
5:53 am 05:53 Clear 76 24.4 51 10.6 42 42 WNW 3 6 29.94 1014 10 16 N/A
6:53 am 06:53 Sunny 76 24.4 50 10 40 40 WNW 3 6 29.95 1014 10 16 N/A
7:53 am 07:53 Sunny 79 26.1 52 11.1 39 39 WNW 3 6 29.96 1015 10 16 N/A
8:53 am 08:53 Sunny 83 28.3 50 10 32 32 E 6 9 29.96 1015 10 16 N/A
9:53 am 09:53 Sunny 85 29.4 51 10.6 31 31 E 7 11 29.97 1015 10 16 N/A
10:53 am 10:53 Sunny 89 31.7 52 11.1 28 28 ESE 12 19 29.96 1015 10 16 N/A
11:53 am 11:53 Partly Cloudy 88 31.1 52 11.1 29 29 E 8 13 29.96 1015 10 16 N/A
12:53 pm 12:53 Sunny 92 33.3 52 11.1 26 26 ESE 10 17 29.93 1013 10 16 N/A
1:53 pm 13:53 Mostly Sunny 93 33.9 37 2.8 14 14 undefined N/A 29.91 1013 10 16 N/A
2:53 pm 14:53 Sunny 95 35 36 2.2 13 13 SW 14 22 29.88 1012 10 16 N/A
3:53 pm 15:53 Sunny 96 35.6 35 1.7 12 12 SW 22 35 29.84 1011 10 16 N/A
4:53 pm 16:53 Sunny 94 34.4 31 -0.6 11 11 SSW 20 31 29.84 1011 10 16 N/A
5:53 pm 17:53 Sunny 92 33.3 27 -2.8 10 10 SW 16 26 29.83 1010 10 16 N/A
6:53 pm 18:53 Clear 90 32.2 27 -2.8 10 10 SSW 9 15 29.83 1010 10 16 N/A
7:53 pm 19:53 Clear 88 31.1 25 -3.9 10 10 SSW 7 11 29.84 1011 10 16 N/A
8:53 pm 20:53 Clear 85 29.4 25 -3.9 11 11 SW 7 11 29.86 1011 10 16 N/A
9:53 pm 21:53 Clear 82 27.8 24 -4.4 12 12 SW 6 9 29.86 1011 10 16 N/A
10:53 pm 22:53 Clear 82 27.8 19 -7.2 9 9 SW 7 11 29.87 1012 10 16 N/A
11:53 pm 23:53 Clear 80 26.7 20 -6.7 10 10 SSW 5 7 29.87 1012 10 16 N/A

Powered by AerisWeather